BKB3 CYKA-CYKA

Flight info

Callsign BKB3
Flight time 1h 33m
Altitude 8000
Route OLONA2 OLONA DCT OVENA
Aircraft C208/L-SDFGR/C

Departure

Time 2026-04-16 17:19
Airport Kamloops John Moose Fulton Field Regional Airport (CYKA)

Arrival

Time 2026-04-16 18:52
Airport Kamloops John Moose Fulton Field Regional Airport (CYKA)
Time Latitude Longitude Altitude Speed Heading
2026-04-16 17:08 50.70534 -120.43802 1133 ft 0 kts 60°
2026-04-16 17:16 50.70535 -120.43801 1133 ft 2 kts 60°
2026-04-16 17:16 50.70571 -120.43796 1133 ft 6 kts 337°
2026-04-16 17:16 50.70608 -120.43781 1133 ft 7 kts 59°
2026-04-16 17:16 50.70588 -120.43712 1135 ft 9 kts 149°
2026-04-16 17:17 50.70529 -120.43670 1137 ft 10 kts 157°
2026-04-16 17:17 50.70458 -120.43621 1133 ft 14 kts 155°
2026-04-16 17:17 50.70359 -120.43554 1133 ft 17 kts 157°
2026-04-16 17:17 50.70273 -120.43450 1135 ft 16 kts 106°
2026-04-16 17:18 50.70242 -120.43287 1134 ft 15 kts 124°
2026-04-16 17:18 50.70154 -120.43197 1133 ft 14 kts 157°
2026-04-16 17:18 50.70073 -120.43209 1135 ft 10 kts 204°
2026-04-16 17:18 50.70067 -120.43275 1135 ft 9 kts 283°
2026-04-16 17:19 50.70125 -120.43652 1135 ft 61 kts 283°
2026-04-16 17:19 50.70202 -120.44427 1336 ft 74 kts 266°
2026-04-16 17:19 50.69761 -120.45030 1527 ft 108 kts 193°
2026-04-16 17:19 50.69079 -120.44466 1850 ft 123 kts 122°
2026-04-16 17:20 50.69012 -120.43156 2172 ft 123 kts 81°
2026-04-16 17:20 50.69117 -120.41766 2512 ft 126 kts 76°
2026-04-16 17:20 50.69276 -120.40345 2812 ft 139 kts 76°
2026-04-16 17:20 50.69412 -120.38787 3075 ft 147 kts 77°
2026-04-16 17:21 50.69554 -120.37194 3342 ft 153 kts 77°
2026-04-16 17:21 50.69694 -120.35527 3624 ft 155 kts 78°
2026-04-16 17:21 50.69848 -120.33835 3863 ft 156 kts 76°
2026-04-16 17:21 50.70013 -120.32164 3927 ft 156 kts 77°
2026-04-16 17:22 50.70192 -120.30447 4213 ft 161 kts 77°
2026-04-16 17:22 50.70361 -120.28694 4649 ft 162 kts 76°
2026-04-16 17:22 50.70490 -120.26936 4860 ft 161 kts 84°
2026-04-16 17:22 50.70515 -120.25164 5099 ft 162 kts 85°
2026-04-16 17:23 50.70529 -120.23390 5333 ft 162 kts 86°
2026-04-16 17:23 50.70500 -120.21618 5540 ft 161 kts 89°
2026-04-16 17:23 50.70477 -120.19865 5790 ft 159 kts 87°
2026-04-16 17:23 50.70463 -120.18117 6036 ft 159 kts 87°
2026-04-16 17:24 50.70438 -120.16396 6250 ft 156 kts 87°
2026-04-16 17:24 50.70404 -120.14681 6499 ft 156 kts 87°
2026-04-16 17:24 50.70371 -120.12965 6742 ft 157 kts 87°
2026-04-16 17:24 50.70323 -120.11246 6963 ft 156 kts 88°
2026-04-16 17:25 50.70275 -120.09539 7181 ft 155 kts 89°
2026-04-16 17:25 50.70232 -120.07849 7422 ft 153 kts 88°
2026-04-16 17:25 50.70174 -120.06172 7661 ft 153 kts 89°
2026-04-16 17:25 50.70108 -120.04491 7910 ft 154 kts 88°
2026-04-16 17:26 50.70032 -120.02767 8049 ft 161 kts 87°
2026-04-16 17:26 50.69966 -120.00964 8113 ft 168 kts 88°
2026-04-16 17:26 50.69903 -119.99082 8151 ft 175 kts 88°
2026-04-16 17:26 50.69848 -119.97135 8147 ft 180 kts 88°
2026-04-16 17:27 50.69788 -119.95152 8155 ft 182 kts 88°
2026-04-16 17:27 50.69720 -119.93141 8151 ft 185 kts 88°
2026-04-16 17:27 50.69659 -119.91122 8142 ft 184 kts 87°
2026-04-16 17:27 50.69602 -119.89108 8131 ft 183 kts 88°
2026-04-16 17:28 50.69548 -119.87096 8141 ft 184 kts 87°
2026-04-16 17:28 50.69488 -119.85078 8140 ft 185 kts 87°
2026-04-16 17:28 50.69428 -119.83054 8141 ft 185 kts 88°
2026-04-16 17:28 50.69367 -119.81029 8143 ft 185 kts 88°
2026-04-16 17:29 50.69308 -119.79000 8149 ft 185 kts 88°
2026-04-16 17:29 50.69263 -119.76978 8151 ft 184 kts 88°
2026-04-16 17:29 50.69223 -119.74969 8151 ft 183 kts 88°
2026-04-16 17:29 50.69178 -119.72965 8138 ft 183 kts 89°
2026-04-16 17:30 50.69136 -119.70977 8131 ft 181 kts 87°
2026-04-16 17:30 50.69092 -119.68992 8155 ft 182 kts 88°
2026-04-16 17:30 50.69054 -119.66997 8122 ft 182 kts 88°
2026-04-16 17:30 50.69012 -119.65015 8125 ft 181 kts 88°
2026-04-16 17:31 50.68969 -119.63034 8133 ft 181 kts 88°
2026-04-16 17:31 50.68924 -119.61046 8129 ft 182 kts 88°
2026-04-16 17:31 50.68882 -119.59054 8120 ft 182 kts 88°
2026-04-16 17:31 50.68847 -119.57089 8120 ft 182 kts 87°
2026-04-16 17:32 50.68806 -119.55100 8116 ft 181 kts 87°
2026-04-16 17:32 50.68760 -119.53120 8114 ft 180 kts 88°
2026-04-16 17:32 50.68714 -119.51146 8135 ft 181 kts 88°
2026-04-16 17:32 50.68670 -119.49208 7942 ft 166 kts 89°
2026-04-16 17:33 50.68629 -119.47487 7715 ft 151 kts 88°
2026-04-16 17:33 50.68587 -119.45883 7497 ft 143 kts 87°
2026-04-16 17:33 50.68545 -119.44335 7282 ft 140 kts 88°
2026-04-16 17:33 50.68502 -119.42816 7079 ft 138 kts 90°
2026-04-16 17:34 50.68477 -119.41321 6862 ft 136 kts 87°
2026-04-16 17:34 50.68443 -119.39852 6656 ft 134 kts 89°
2026-04-16 17:34 50.68435 -119.38385 6457 ft 134 kts 88°
2026-04-16 17:34 50.68428 -119.36934 6224 ft 132 kts 87°
2026-04-16 17:35 50.68407 -119.35471 6013 ft 135 kts 88°
2026-04-16 17:35 50.68387 -119.33996 5812 ft 134 kts 89°
2026-04-16 17:35 50.68369 -119.32521 5609 ft 135 kts 89°
2026-04-16 17:35 50.68362 -119.31048 5411 ft 134 kts 87°
2026-04-16 17:36 50.68467 -119.29604 5178 ft 133 kts 59°
2026-04-16 17:36 50.68965 -119.28350 4821 ft 139 kts 50°
2026-04-16 17:36 50.69530 -119.27070 4386 ft 144 kts 52°
2026-04-16 17:36 50.69910 -119.25586 3935 ft 147 kts 68°
2026-04-16 17:37 50.70241 -119.24063 3408 ft 145 kts 68°
2026-04-16 17:37 50.70577 -119.22559 3042 ft 144 kts 64°
2026-04-16 17:37 50.71338 -119.21801 2778 ft 128 kts 359°
2026-04-16 17:37 50.72188 -119.22016 2622 ft 117 kts 345°
2026-04-16 17:38 50.72885 -119.22460 2649 ft 96 kts 314°
2026-04-16 17:38 50.73051 -119.23375 2618 ft 92 kts 258°
2026-04-16 17:38 50.72890 -119.24402 2528 ft 100 kts 254°
2026-04-16 17:38 50.72574 -119.25396 2452 ft 105 kts 218°
2026-04-16 17:39 50.71874 -119.25690 2420 ft 107 kts 192°
2026-04-16 17:39 50.71141 -119.25609 2418 ft 106 kts 151°
2026-04-16 17:39 50.70785 -119.24641 2415 ft 107 kts 89°
2026-04-16 17:39 50.70893 -119.23478 2377 ft 108 kts 76°
2026-04-16 17:40 50.71290 -119.22526 2335 ft 107 kts 30°
2026-04-16 17:40 50.71979 -119.22247 2337 ft 101 kts 347°
2026-04-16 17:40 50.72660 -119.22376 2484 ft 105 kts 353°
2026-04-16 17:40 50.73411 -119.22456 2778 ft 107 kts 359°
2026-04-16 17:41 50.74160 -119.22382 3017 ft 109 kts
2026-04-16 17:41 50.74927 -119.22271 3274 ft 111 kts
2026-04-16 17:41 50.75698 -119.22132 3592 ft 115 kts
2026-04-16 17:41 50.76497 -119.21971 3934 ft 117 kts
2026-04-16 17:42 50.77309 -119.21797 4297 ft 119 kts
2026-04-16 17:42 50.78130 -119.21602 4652 ft 120 kts
2026-04-16 17:42 50.78948 -119.21392 4942 ft 118 kts
2026-04-16 17:42 50.79758 -119.21210 5269 ft 117 kts
2026-04-16 17:43 50.80568 -119.21015 5604 ft 118 kts
2026-04-16 17:43 50.81388 -119.20811 5954 ft 120 kts
2026-04-16 17:43 50.82227 -119.20748 6284 ft 122 kts 358°
2026-04-16 17:43 50.83078 -119.20759 6603 ft 123 kts 357°
2026-04-16 17:44 50.83933 -119.20788 6906 ft 123 kts 356°
2026-04-16 17:44 50.84787 -119.20835 7216 ft 122 kts 355°
2026-04-16 17:44 50.85637 -119.20897 7517 ft 122 kts 355°
2026-04-16 17:44 50.86490 -119.20963 7791 ft 124 kts 354°
2026-04-16 17:45 50.87356 -119.21034 8055 ft 126 kts 355°
2026-04-16 17:45 50.88232 -119.21127 8311 ft 127 kts 354°
2026-04-16 17:45 50.89112 -119.21219 8571 ft 127 kts 355°
2026-04-16 17:45 50.89987 -119.21309 8830 ft 125 kts 354°
2026-04-16 17:46 50.90846 -119.21399 9090 ft 123 kts 354°
2026-04-16 17:46 50.91691 -119.21486 9366 ft 121 kts 355°
2026-04-16 17:46 50.92527 -119.21584 9657 ft 120 kts 355°
2026-04-16 17:46 50.93363 -119.21686 9915 ft 122 kts 355°
2026-04-16 17:47 50.94235 -119.21794 10036 ft 130 kts 355°
2026-04-16 17:47 50.95168 -119.21912 10073 ft 138 kts 355°
2026-04-16 17:47 50.96150 -119.22038 10095 ft 144 kts 355°
2026-04-16 17:47 50.97166 -119.22172 10105 ft 148 kts 354°
2026-04-16 17:48 50.98204 -119.22305 10107 ft 150 kts 355°
2026-04-16 17:48 50.99255 -119.22439 10117 ft 153 kts 355°
2026-04-16 17:48 51.00296 -119.22576 10258 ft 146 kts 355°
2026-04-16 17:48 51.01267 -119.22700 10484 ft 138 kts 355°
2026-04-16 17:49 51.02219 -119.22820 10707 ft 133 kts 355°
2026-04-16 17:49 51.03113 -119.22930 10921 ft 129 kts 355°
2026-04-16 17:49 51.03992 -119.23036 11140 ft 125 kts 355°
2026-04-16 17:49 51.04844 -119.23158 11373 ft 121 kts 354°
2026-04-16 17:50 51.05677 -119.23270 11630 ft 120 kts 355°
2026-04-16 17:50 51.06509 -119.23378 11842 ft 119 kts 355°
2026-04-16 17:50 51.07343 -119.23484 12002 ft 123 kts 355°
2026-04-16 17:50 51.08228 -119.23597 12084 ft 133 kts 355°
2026-04-16 17:51 51.09183 -119.23715 12111 ft 142 kts 355°
2026-04-16 17:51 51.10192 -119.23844 12126 ft 149 kts 355°
2026-04-16 17:51 51.11247 -119.23977 12140 ft 155 kts 355°
2026-04-16 17:51 51.12331 -119.24118 12115 ft 157 kts 355°
2026-04-16 17:52 51.13416 -119.24252 12097 ft 156 kts 355°
2026-04-16 17:52 51.14491 -119.24377 12104 ft 154 kts 355°
2026-04-16 17:52 51.15558 -119.24515 12132 ft 155 kts 355°
2026-04-16 17:52 51.16640 -119.24652 12143 ft 157 kts 355°
2026-04-16 17:53 51.17735 -119.24794 12129 ft 158 kts 355°
2026-04-16 17:53 51.18812 -119.24929 12110 ft 153 kts 355°
2026-04-16 17:53 51.19856 -119.25071 12118 ft 149 kts 355°
2026-04-16 17:53 51.20887 -119.25209 12149 ft 149 kts 355°
2026-04-16 17:54 51.21919 -119.25342 12144 ft 149 kts 355°
2026-04-16 17:54 51.22957 -119.25478 12161 ft 151 kts 355°
2026-04-16 17:54 51.24005 -119.25623 12128 ft 150 kts 355°
2026-04-16 17:54 51.25049 -119.25763 12134 ft 150 kts 356°
2026-04-16 17:55 51.26079 -119.25920 12129 ft 148 kts 354°
2026-04-16 17:55 51.27103 -119.26051 12135 ft 148 kts 355°
2026-04-16 17:55 51.28138 -119.26177 12142 ft 150 kts 355°
2026-04-16 17:55 51.29183 -119.26303 12139 ft 151 kts 355°
2026-04-16 17:56 51.30238 -119.26429 12134 ft 152 kts 355°
2026-04-16 17:56 51.31289 -119.26563 12127 ft 151 kts 355°
2026-04-16 17:56 51.33348 -119.26817 12148 ft 149 kts 355°
2026-04-16 17:57 51.34387 -119.26948 12156 ft 151 kts 355°
2026-04-16 17:57 51.35435 -119.27079 12141 ft 151 kts 355°
2026-04-16 17:57 51.36478 -119.27227 12129 ft 150 kts 355°
2026-04-16 17:57 51.37516 -119.27359 12130 ft 149 kts 355°
2026-04-16 17:58 51.38530 -119.27485 12133 ft 148 kts 355°
2026-04-16 17:58 51.39567 -119.27610 12142 ft 148 kts 355°
2026-04-16 17:58 51.40593 -119.27736 12147 ft 148 kts 355°
2026-04-16 17:58 51.41627 -119.27862 12157 ft 149 kts 355°
2026-04-16 17:59 51.42667 -119.27989 12148 ft 150 kts 355°
2026-04-16 17:59 51.43688 -119.28116 12143 ft 149 kts 355°
2026-04-16 17:59 51.44720 -119.28246 12144 ft 148 kts 355°
2026-04-16 17:59 51.45749 -119.28375 12149 ft 149 kts 355°
2026-04-16 18:00 51.46779 -119.28501 12154 ft 149 kts 355°
2026-04-16 18:00 51.47816 -119.28628 12161 ft 150 kts 355°
2026-04-16 18:00 51.48859 -119.28757 12140 ft 150 kts 355°
2026-04-16 18:00 51.49899 -119.28884 12125 ft 149 kts 355°
2026-04-16 18:01 51.50932 -119.29009 12143 ft 149 kts 355°
2026-04-16 18:01 51.51974 -119.29136 12147 ft 151 kts 355°
2026-04-16 18:01 51.53026 -119.29259 12145 ft 152 kts 355°
2026-04-16 18:01 51.54079 -119.29383 12144 ft 152 kts 355°
2026-04-16 18:02 51.55130 -119.29509 12136 ft 151 kts 355°
2026-04-16 18:02 51.56179 -119.29633 12139 ft 151 kts 355°
2026-04-16 18:02 51.57222 -119.29756 12135 ft 150 kts 355°
2026-04-16 18:02 51.57909 -119.29839 12140 ft 149 kts 355°
2026-04-16 18:03 51.58944 -119.29961 12138 ft 149 kts 355°
2026-04-16 18:03 51.59972 -119.30084 12135 ft 148 kts 355°
2026-04-16 18:03 51.60995 -119.30206 12144 ft 147 kts 355°
2026-04-16 18:03 51.62019 -119.30323 12150 ft 148 kts 355°
2026-04-16 18:04 51.63050 -119.30441 12160 ft 149 kts 355°
2026-04-16 18:04 51.64088 -119.30560 12172 ft 150 kts 355°
2026-04-16 18:04 51.65137 -119.30682 12168 ft 152 kts 355°
2026-04-16 18:04 51.66190 -119.30805 12156 ft 152 kts 355°
2026-04-16 18:05 51.67242 -119.30925 12159 ft 152 kts 355°
2026-04-16 18:05 51.68299 -119.31050 12169 ft 153 kts 355°
2026-04-16 18:05 51.69361 -119.31172 12154 ft 153 kts 355°
2026-04-16 18:05 51.70414 -119.31299 12139 ft 151 kts 355°
2026-04-16 18:06 51.71456 -119.31437 12151 ft 150 kts 355°
2026-04-16 18:06 51.72505 -119.31569 12165 ft 152 kts 355°
2026-04-16 18:06 51.73558 -119.31706 12165 ft 152 kts 355°
2026-04-16 18:06 51.74618 -119.31840 12157 ft 152 kts 355°
2026-04-16 18:07 51.75673 -119.31971 12157 ft 152 kts 355°
2026-04-16 18:07 51.76729 -119.32105 12152 ft 152 kts 355°
2026-04-16 18:07 51.77779 -119.32237 12143 ft 151 kts 355°
2026-04-16 18:07 51.78828 -119.32361 12151 ft 151 kts 355°
2026-04-16 18:08 51.79864 -119.32480 12153 ft 151 kts 355°
2026-04-16 18:08 51.80913 -119.32609 12154 ft 151 kts 355°
2026-04-16 18:08 51.81960 -119.32731 12154 ft 151 kts 355°
2026-04-16 18:08 51.83008 -119.32852 12160 ft 151 kts 355°
2026-04-16 18:09 51.84051 -119.32972 12146 ft 149 kts 355°
2026-04-16 18:09 51.85085 -119.33091 12157 ft 149 kts 355°
2026-04-16 18:09 51.86119 -119.33207 12173 ft 150 kts 355°
2026-04-16 18:09 51.87167 -119.33325 12171 ft 151 kts 355°
2026-04-16 18:10 51.88220 -119.33458 12180 ft 153 kts 352°
2026-04-16 18:10 51.89271 -119.33728 12169 ft 153 kts 349°
2026-04-16 18:10 51.90315 -119.34049 12165 ft 153 kts 348°
2026-04-16 18:10 51.91353 -119.34384 12161 ft 152 kts 348°
2026-04-16 18:11 51.92387 -119.34732 12160 ft 152 kts 348°
2026-04-16 18:11 51.93420 -119.35081 12159 ft 151 kts 348°
2026-04-16 18:11 51.94451 -119.35435 12162 ft 151 kts 348°
2026-04-16 18:11 51.95477 -119.35782 12146 ft 150 kts 348°
2026-04-16 18:12 51.96496 -119.36129 12164 ft 150 kts 348°
2026-04-16 18:12 51.97517 -119.36473 12154 ft 150 kts 348°
2026-04-16 18:12 51.98536 -119.36823 12165 ft 150 kts 348°
2026-04-16 18:12 51.99562 -119.37174 12174 ft 151 kts 348°
2026-04-16 18:13 52.00592 -119.37534 12168 ft 151 kts 348°
2026-04-16 18:13 52.01623 -119.37890 12167 ft 151 kts 348°
2026-04-16 18:13 52.02633 -119.38236 11676 ft 146 kts 348°
2026-04-16 18:13 52.03617 -119.38571 11067 ft 144 kts 348°
2026-04-16 18:14 52.04593 -119.38894 10485 ft 143 kts 348°
2026-04-16 18:14 52.05563 -119.39225 9903 ft 142 kts 348°
2026-04-16 18:14 52.06533 -119.39558 9275 ft 143 kts 348°
2026-04-16 18:14 52.07516 -119.39885 8681 ft 145 kts 348°
2026-04-16 18:15 52.08508 -119.40202 8070 ft 146 kts 348°
2026-04-16 18:15 52.09508 -119.40509 7463 ft 146 kts 348°
2026-04-16 18:15 52.10511 -119.40791 6870 ft 147 kts 348°
2026-04-16 18:15 52.11509 -119.41142 6280 ft 147 kts 332°
2026-04-16 18:16 52.12101 -119.42408 5598 ft 144 kts 279°
2026-04-16 18:16 52.11826 -119.43842 5308 ft 129 kts 231°
2026-04-16 18:16 52.11090 -119.44387 5209 ft 115 kts 176°
2026-04-16 18:16 52.10343 -119.44202 5092 ft 108 kts 169°
2026-04-16 18:17 52.09584 -119.43942 4775 ft 118 kts 167°
2026-04-16 18:17 52.08789 -119.43424 4435 ft 129 kts 135°
2026-04-16 18:17 52.08534 -119.42084 4138 ft 133 kts 77°
2026-04-16 18:17 52.08856 -119.40706 3900 ft 127 kts 52°
2026-04-16 18:18 52.09577 -119.40192 3772 ft 111 kts 346°
2026-04-16 18:18 52.10048 -119.40951 3717 ft 96 kts 277°
2026-04-16 18:18 52.10050 -119.41974 3858 ft 81 kts 263°
2026-04-16 18:18 52.09840 -119.42793 4012 ft 82 kts 230°
2026-04-16 18:19 52.09311 -119.42753 4077 ft 98 kts 123°
2026-04-16 18:19 52.08869 -119.41933 4255 ft 96 kts 156°
2026-04-16 18:19 52.08177 -119.41923 4401 ft 107 kts 199°
2026-04-16 18:19 52.07452 -119.42434 4537 ft 121 kts 207°
2026-04-16 18:20 52.06735 -119.43065 4870 ft 114 kts 210°
2026-04-16 18:20 52.06051 -119.43687 5336 ft 111 kts 210°
2026-04-16 18:20 52.05383 -119.44285 5805 ft 108 kts 211°
2026-04-16 18:20 52.04730 -119.44836 6223 ft 103 kts 210°
2026-04-16 18:21 52.04110 -119.45351 6562 ft 97 kts 212°
2026-04-16 18:21 52.03536 -119.45832 6874 ft 89 kts 210°
2026-04-16 18:21 52.03011 -119.46246 7225 ft 79 kts 208°
2026-04-16 18:21 52.02407 -119.46675 7330 ft 100 kts 208°
2026-04-16 18:22 52.01742 -119.47191 7485 ft 116 kts 209°
2026-04-16 18:22 52.00948 -119.47852 7557 ft 140 kts 210°
2026-04-16 18:22 52.00029 -119.48630 7614 ft 157 kts 211°
2026-04-16 18:22 51.99032 -119.49499 7669 ft 168 kts 211°
2026-04-16 18:23 51.97986 -119.50424 7705 ft 173 kts 210°
2026-04-16 18:23 51.96923 -119.51374 7735 ft 175 kts 211°
2026-04-16 18:23 51.95847 -119.52334 7798 ft 178 kts 211°
2026-04-16 18:23 51.94758 -119.53302 7837 ft 179 kts 211°
2026-04-16 18:24 51.93670 -119.54277 7864 ft 178 kts 210°
2026-04-16 18:24 51.92591 -119.55250 7890 ft 177 kts 211°
2026-04-16 18:24 51.91520 -119.56215 7942 ft 176 kts 211°
2026-04-16 18:24 51.90440 -119.57153 7998 ft 176 kts 211°
2026-04-16 18:25 51.89350 -119.58080 8061 ft 177 kts 210°
2026-04-16 18:25 51.88259 -119.59027 8125 ft 179 kts 210°
2026-04-16 18:25 51.87163 -119.59963 8252 ft 177 kts 211°
2026-04-16 18:25 51.86085 -119.60881 8405 ft 174 kts 211°
2026-04-16 18:26 51.85026 -119.61797 8552 ft 172 kts 211°
2026-04-16 18:26 51.83974 -119.62706 8712 ft 171 kts 211°
2026-04-16 18:26 51.82921 -119.63611 8864 ft 171 kts 211°
2026-04-16 18:26 51.81868 -119.64509 9022 ft 171 kts 211°
2026-04-16 18:27 51.80822 -119.65408 9199 ft 171 kts 211°
2026-04-16 18:27 51.79762 -119.66313 9389 ft 173 kts 211°
2026-04-16 18:27 51.78692 -119.67225 9560 ft 175 kts 211°
2026-04-16 18:27 51.77611 -119.68143 9725 ft 176 kts 211°
2026-04-16 18:28 51.76526 -119.69063 9893 ft 177 kts 211°
2026-04-16 18:28 51.75451 -119.69973 10050 ft 177 kts 211°
2026-04-16 18:28 51.74361 -119.70889 10198 ft 177 kts 211°
2026-04-16 18:28 51.73272 -119.71802 10344 ft 176 kts 211°
2026-04-16 18:29 51.72183 -119.72714 10488 ft 176 kts 211°
2026-04-16 18:29 51.71100 -119.73618 10632 ft 175 kts 211°
2026-04-16 18:29 51.70018 -119.74519 10785 ft 175 kts 211°
2026-04-16 18:29 51.68938 -119.75419 10948 ft 175 kts 211°
2026-04-16 18:30 51.67854 -119.76318 11105 ft 176 kts 211°
2026-04-16 18:30 51.66763 -119.77218 11272 ft 177 kts 211°
2026-04-16 18:30 51.65659 -119.78126 11442 ft 179 kts 211°
2026-04-16 18:30 51.64543 -119.79041 11604 ft 181 kts 211°
2026-04-16 18:31 51.63422 -119.79966 11742 ft 181 kts 211°
2026-04-16 18:31 51.62301 -119.80892 11883 ft 181 kts 211°
2026-04-16 18:31 51.61182 -119.81814 12023 ft 180 kts 211°
2026-04-16 18:31 51.60061 -119.82730 12096 ft 182 kts 211°
2026-04-16 18:32 51.58925 -119.83669 12140 ft 185 kts 211°
2026-04-16 18:32 51.57763 -119.84624 12172 ft 190 kts 211°
2026-04-16 18:32 51.56573 -119.85606 12190 ft 195 kts 211°
2026-04-16 18:32 51.55356 -119.86612 12182 ft 198 kts 211°
2026-04-16 18:33 51.54123 -119.87631 12185 ft 200 kts 211°
2026-04-16 18:33 51.52885 -119.88656 12180 ft 200 kts 211°
2026-04-16 18:33 51.51645 -119.89684 12182 ft 201 kts 211°
2026-04-16 18:33 51.50403 -119.90713 12180 ft 201 kts 211°
2026-04-16 18:34 51.49185 -119.91726 12171 ft 199 kts 211°
2026-04-16 18:34 51.47959 -119.92752 12175 ft 199 kts 211°
2026-04-16 18:34 51.46726 -119.93774 12178 ft 200 kts 211°
2026-04-16 18:34 51.45492 -119.94802 12182 ft 201 kts 211°
2026-04-16 18:35 51.44255 -119.95833 12161 ft 199 kts 211°
2026-04-16 18:35 51.43023 -119.96860 12182 ft 200 kts 211°
2026-04-16 18:35 51.41789 -119.97880 12164 ft 199 kts 211°
2026-04-16 18:35 51.40551 -119.98902 12192 ft 201 kts 210°
2026-04-16 18:36 51.39313 -119.99919 12160 ft 199 kts 212°
2026-04-16 18:36 51.38092 -120.00941 12166 ft 198 kts 211°
2026-04-16 18:36 51.36871 -120.01936 12169 ft 197 kts 211°
2026-04-16 18:36 51.35651 -120.02936 12174 ft 197 kts 211°
2026-04-16 18:37 51.34424 -120.03932 12189 ft 198 kts 211°
2026-04-16 18:37 51.33190 -120.04936 12181 ft 199 kts 211°
2026-04-16 18:37 51.31953 -120.05944 12175 ft 200 kts 211°
2026-04-16 18:37 51.30715 -120.06953 12178 ft 200 kts 211°
2026-04-16 18:38 51.29478 -120.07963 12178 ft 200 kts 211°
2026-04-16 18:38 51.28235 -120.08979 12172 ft 201 kts 211°
2026-04-16 18:38 51.26992 -120.09994 12168 ft 201 kts 211°
2026-04-16 18:38 51.25748 -120.11010 12170 ft 200 kts 211°
2026-04-16 18:39 51.24508 -120.12023 12177 ft 200 kts 211°
2026-04-16 18:39 51.23267 -120.13034 12182 ft 200 kts 211°
2026-04-16 18:39 51.22022 -120.14052 12192 ft 201 kts 211°
2026-04-16 18:39 51.20772 -120.15074 12186 ft 202 kts 211°
2026-04-16 18:40 51.19520 -120.16098 12180 ft 202 kts 211°
2026-04-16 18:40 51.18265 -120.17119 12182 ft 202 kts 211°
2026-04-16 18:40 51.17011 -120.18140 12178 ft 202 kts 211°
2026-04-16 18:40 51.15759 -120.19162 12169 ft 202 kts 211°
2026-04-16 18:41 51.14505 -120.20185 12167 ft 202 kts 211°
2026-04-16 18:41 51.13256 -120.21212 12163 ft 202 kts 211°
2026-04-16 18:41 51.12016 -120.22215 12167 ft 198 kts 210°
2026-04-16 18:41 51.10797 -120.23199 12165 ft 195 kts 209°
2026-04-16 18:42 51.09505 -120.23882 12170 ft 196 kts 199°
2026-04-16 18:42 51.08192 -120.24435 12152 ft 195 kts 197°
2026-04-16 18:42 51.06878 -120.24956 12158 ft 194 kts 196°
2026-04-16 18:42 51.05564 -120.25452 12174 ft 194 kts 196°
2026-04-16 18:43 51.04246 -120.25944 12175 ft 195 kts 195°
2026-04-16 18:43 51.02925 -120.26434 12168 ft 195 kts 195°
2026-04-16 18:43 51.01598 -120.26920 12162 ft 196 kts 195°
2026-04-16 18:43 51.00276 -120.27408 12142 ft 195 kts 195°
2026-04-16 18:44 50.98989 -120.27868 11729 ft 185 kts 194°
2026-04-16 18:44 50.97743 -120.28233 11313 ft 180 kts 192°
2026-04-16 18:44 50.96514 -120.28556 10903 ft 177 kts 193°
2026-04-16 18:44 50.95300 -120.28863 10497 ft 175 kts 192°
2026-04-16 18:45 50.94101 -120.29151 10080 ft 173 kts 192°
2026-04-16 18:45 50.92913 -120.29435 9644 ft 173 kts 192°
2026-04-16 18:45 50.91729 -120.29700 9189 ft 170 kts 192°
2026-04-16 18:45 50.90568 -120.29978 8748 ft 166 kts 192°
2026-04-16 18:46 50.89427 -120.30245 8323 ft 166 kts 190°
2026-04-16 18:46 50.88283 -120.30499 7920 ft 167 kts 191°
2026-04-16 18:46 50.87140 -120.30762 7513 ft 165 kts 193°
2026-04-16 18:46 50.86002 -120.31021 7104 ft 164 kts 191°
2026-04-16 18:47 50.84881 -120.31283 6703 ft 163 kts 192°
2026-04-16 18:47 50.83767 -120.31520 6280 ft 162 kts 192°
2026-04-16 18:47 50.82650 -120.31744 5845 ft 161 kts 189°
2026-04-16 18:47 50.81550 -120.31995 5431 ft 159 kts 191°
2026-04-16 18:48 50.80465 -120.32257 4984 ft 157 kts 190°
2026-04-16 18:48 50.79396 -120.32492 4473 ft 156 kts 193°
2026-04-16 18:48 50.78301 -120.32687 3996 ft 156 kts 192°
2026-04-16 18:48 50.77240 -120.32848 3637 ft 154 kts 190°
2026-04-16 18:49 50.76158 -120.33040 3323 ft 153 kts 191°
2026-04-16 18:49 50.75119 -120.33294 2977 ft 155 kts 192°
2026-04-16 18:49 50.74049 -120.33552 2576 ft 156 kts 192°
2026-04-16 18:49 50.73004 -120.33802 2340 ft 147 kts 191°
2026-04-16 18:50 50.72039 -120.34072 2215 ft 134 kts 207°
2026-04-16 18:50 50.71483 -120.35035 2108 ft 114 kts 248°
2026-04-16 18:50 50.71233 -120.36148 2107 ft 102 kts 256°
2026-04-16 18:50 50.71024 -120.37184 2137 ft 99 kts 247°
2026-04-16 18:51 50.70584 -120.38039 2133 ft 104 kts 236°
2026-04-16 18:51 50.70248 -120.38615 2047 ft 111 kts 235°
2026-04-16 18:51 50.69685 -120.39519 1903 ft 116 kts 237°
2026-04-16 18:51 50.69532 -120.40650 1752 ft 109 kts 285°
2026-04-16 18:52 50.69698 -120.41779 1590 ft 98 kts 287°
2026-04-16 18:52 50.69921 -120.42663 1313 ft 75 kts 294°
2026-04-16 18:52 50.70075 -120.43348 1138 ft 58 kts 283°
2026-04-16 18:52 50.70147 -120.43813 1133 ft 21 kts 285°
2026-04-16 18:53 50.70181 -120.43949 1135 ft 16 kts 355°
2026-04-16 18:53 50.70210 -120.43871 1138 ft 7 kts 64°
2026-04-16 18:53 50.70253 -120.43746 1137 ft 16 kts 62°
2026-04-16 18:53 50.70303 -120.43662 1134 ft 9 kts 290°
2026-04-16 18:54 50.70322 -120.43788 1134 ft 16 kts 284°
2026-04-16 18:54 50.70353 -120.43993 1133 ft 21 kts 283°
2026-04-16 18:54 50.70399 -120.44159 1133 ft 9 kts 41°
2026-04-16 18:54 50.70428 -120.44088 1136 ft 10 kts 59°
2026-04-16 18:55 50.70481 -120.44013 1134 ft 5 kts 28°
2026-04-16 18:55 50.70526 -120.43973 1133 ft 12 kts 42°
2026-04-16 18:55 50.70577 -120.43844 1134 ft 8 kts 57°
2026-04-16 18:55 50.70604 -120.43774 1134 ft 8 kts 56°
2026-04-16 18:56 50.70636 -120.43789 1133 ft 2 kts 343°
2026-04-16 18:56 50.70642 -120.43785 1133 ft 0 kts 61°